This is the latest recevied weather packets stored in our database for station/object KG5CK-1. If no packets are shown the sender has not sent any weather packets the latest 10 day(s).
| Time | Temp. | Humidity | Pressure | Rain* | Wind** | Luminosity | Snow |
|---|---|---|---|---|---|---|---|
| 1777091343 | 21.11° C | 84% | 1002.5 hPa | 0 mm | 1.79 m/s, 97° | - | - |
| 1777091283 | 21.11° C | 84% | 1002.5 hPa | 0 mm | 1.79 m/s, 97° | - | - |
| 1777091223 | 21.11° C | 84% | 1002.5 hPa | 0 mm | 1.79 m/s, 97° | - | - |
| 1777091163 | 21.11° C | 84% | 1002.5 hPa | 0 mm | 1.79 m/s, 97° | - | - |
| 1777091103 | 21.11° C | 84% | 1002.6 hPa | 0 mm | 1.34 m/s, 63° | - | - |
| 1777091043 | 21.11° C | 84% | 1002.6 hPa | 0 mm | 1.34 m/s, 63° | - | - |
| 1777090983 | 21.11° C | 84% | 1002.6 hPa | 0 mm | 1.34 m/s, 63° | - | - |
| 1777090923 | 21.11° C | 84% | 1002.6 hPa | 0 mm | 1.34 m/s, 63° | - | - |
| 1777090862 | 21.11° C | 84% | 1002.6 hPa | 0 mm | 1.34 m/s, 63° | - | - |
| 1777090803 | 21.11° C | 83% | 1002.6 hPa | 0 mm | 0.89 m/s, 66° | - | - |
| 1777090743 | 21.11° C | 83% | 1002.6 hPa | 0 mm | 0.89 m/s, 66° | - | - |
| 1777090683 | 21.11° C | 83% | 1002.6 hPa | 0 mm | 0.89 m/s, 66° | - | - |
| 1777090622 | 21.11° C | 83% | 1002.6 hPa | 0 mm | 0.89 m/s, 66° | - | - |
| 1777090563 | 21.11° C | 83% | 1002.6 hPa | 0 mm | 0.89 m/s, 66° | - | - |
| 1777090503 | 21.67° C | 82% | 1002.5 hPa | 0 mm | 1.34 m/s, 41° | - | - |
| 1777090443 | 21.67° C | 82% | 1002.5 hPa | 0 mm | 1.34 m/s, 41° | - | - |
| 1777090383 | 21.67° C | 82% | 1002.5 hPa | 0 mm | 1.34 m/s, 41° | - | - |
| 1777090322 | 21.67° C | 82% | 1002.5 hPa | 0 mm | 1.34 m/s, 41° | - | - |
| 1777090262 | 21.67° C | 82% | 1002.5 hPa | 0 mm | 1.34 m/s, 41° | - | - |
| 1777090203 | 21.67° C | 80% | 1002.6 hPa | 0 mm | 0.45 m/s, 61° | - | - |
| 1777090143 | 21.67° C | 80% | 1002.6 hPa | 0 mm | 0.45 m/s, 61° | - | - |
| 1777090083 | 21.67° C | 80% | 1002.6 hPa | 0 mm | 0.45 m/s, 61° | - | - |
| 1777090023 | 21.67° C | 80% | 1002.6 hPa | 0 mm | 0.45 m/s, 61° | - | - |
| 1777089962 | 21.67° C | 80% | 1002.6 hPa | 0 mm | 0.45 m/s, 61° | - | - |
| 1777089902 | 22.22° C | 79% | 1002.6 hPa | 0 mm | 1.79 m/s, 47° | - | - |
* Rain latest hour (hover to see other rain measurements)
** Current wind speed in m/s (hover to see current wind gust speed)